Change the Weather History Date:

Tuesday, May 13, 2014

  Actual Average Record
Temperature  
Mean Temperature 47 °F 65 °F  
Max Temperature 56 °F 78 °F 95 °F (1984)
Min Temperature 38 °F 52 °F 31 °F (1918)
Degree Days  
Heating Degree Days 18 2  
Month to date heating degree days 75 47  
Since 1 July heating degree days 3942 4151  
Cooling Degree Days 0 2  
Month to date cooling degree days 9 19  
Year to date cooling degree days 15 26  
Moisture  
Dew Point 26 °F    
Average Humidity 50    
Maximum Humidity 73    
Minimum Humidity 26    
Precipitation  
Precipitation 0.00 in 0.01 in 0.09 in (1994)
Month to date precipitation 0.05 0.21  
Year to date precipitation 0.46 2.25  
Snow  
Snow 0.00 in - - ()
Month to date snowfall 0.0  
Since 1 July snowfall 6.6  
Snow Depth 0.00 in    
Sea Level Pressure  
Sea Level Pressure 30.30 in    
Wind  
Wind Speed 14 mph (East)    
Max Wind Speed 28 mph    
Max Gust Speed 33 mph    
Visibility 10 miles    
Events      
T = Trace of Precipitation, MM = Missing Value Source: NWS Daily Summary

Daily Weather History Graph

Daily Weather History Graph

Search for Another Location

Airport or City:

Trip Planner

Search our weather history database for the weather conditions in past years. The results will help you decide how hot, cold, wet, or windy it might be!

Date:

Astronomy

May. 13, 2014 Rise Set
Actual Time 6:04 AM MDT 8:01 PM MDT
Civil Twilight 5:36 AM MDT 8:29 PM MDT
Nautical Twilight 5:02 AM MDT 9:03 PM MDT
Astronomical Twilight 4:26 AM MDT 9:40 PM MDT
Moon 7:08 PM MDT (5/13) 5:18 AM MDT (5/13)
Length of Visible Light 14h 53m
Length of Day
13h 57m
Waxing Gibbous, 99% of the Moon is Illuminated
May 13
Waxing Gibbous
May 14
Full
May 21
Last Quarter
May 28
New
Jun 5
First Quarter

Hourly Weather History & Observations

Time (MDT) Temp. Windchill Dew Point Humidity Pressure Visibility Wind Dir Wind Speed Gust Speed Precip Events Conditions
12:52 AM 42.1 °F 32.6 °F 34.0 °F 73% 30.17 in 10.0 mi East 23.0 mph - N/A   Partly Cloudy
1:52 AM 41.0 °F 32.2 °F 33.1 °F 73% 30.18 in 10.0 mi East 18.4 mph - N/A   Partly Cloudy
2:52 AM 41.0 °F 31.9 °F 30.0 °F 65% 30.18 in 10.0 mi East 19.6 mph 27.6 mph N/A   Scattered Clouds
3:52 AM 39.0 °F 29.0 °F 28.9 °F 67% 30.19 in 10.0 mi East 20.7 mph 29.9 mph N/A   Scattered Clouds
4:52 AM 39.0 °F 28.5 °F 28.9 °F 67% 30.21 in 10.0 mi East 23.0 mph 31.1 mph N/A   Mostly Cloudy
5:52 AM 37.9 °F 27.6 °F 28.9 °F 70% 30.22 in 10.0 mi East 20.7 mph 28.8 mph N/A   Scattered Clouds
6:52 AM 39.2 °F 29.0 °F 26.6 °F 61% 30.33 in 10.0 mi East 21.9 mph 28.8 mph N/A   Mostly Cloudy
7:52 AM 39.0 °F 29.0 °F 27.0 °F 62% 30.32 in 10.0 mi East 20.7 mph 28.8 mph N/A   Mostly Cloudy
8:52 AM 39.9 °F 29.2 °F 27.0 °F 60% 30.36 in 10.0 mi East 25.3 mph 33.4 mph N/A   Overcast
9:52 AM 42.8 °F 33.3 °F 24.8 °F 49% 30.42 in 10.0 mi ESE 24.2 mph 31.1 mph N/A   Overcast
10:52 AM 46.0 °F 38.0 °F 25.0 °F 44% 30.37 in 10.0 mi ESE 21.9 mph 28.8 mph N/A   Scattered Clouds
11:52 AM 48.9 °F - 25.0 °F 39% 30.36 in 10.0 mi East 17.3 mph - N/A   Mostly Cloudy
12:52 PM 50.0 °F - 25.0 °F 38% 30.35 in 10.0 mi ENE 15.0 mph 23.0 mph N/A   Scattered Clouds
1:52 PM 50.0 °F - 24.1 °F 36% 30.34 in 10.0 mi East 6.9 mph - N/A   Mostly Cloudy
2:52 PM 51.1 °F - 23.0 °F 33% 30.32 in 10.0 mi ESE 8.1 mph - N/A   Mostly Cloudy
3:52 PM 52.0 °F - 24.1 °F 34% 30.31 in 10.0 mi East 8.1 mph - N/A   Mostly Cloudy
4:52 PM 54.0 °F - 23.0 °F 30% 30.28 in 10.0 mi NNE 9.2 mph - N/A   Scattered Clouds
5:52 PM 55.0 °F - 21.9 °F 28% 30.29 in 10.0 mi NNW 8.1 mph - N/A   Scattered Clouds
6:52 PM 54.0 °F - 21.9 °F 29% 30.29 in 10.0 mi Calm Calm - N/A   Mostly Cloudy
7:52 PM 52.0 °F - 21.9 °F 31% 30.32 in 10.0 mi ESE 9.2 mph - N/A   Scattered Clouds
8:52 PM 50.0 °F - 23.0 °F 35% 30.35 in 10.0 mi ESE 6.9 mph - N/A   Partly Cloudy
9:52 PM 50.0 °F - 23.0 °F 35% 30.37 in 10.0 mi Calm Calm - N/A   Partly Cloudy
10:52 PM 48.0 °F - 23.0 °F 37% 30.39 in 10.0 mi Variable 3.5 mph - N/A   Partly Cloudy
11:52 PM 46.9 °F - 25.0 °F 42% 30.38 in 10.0 mi East 18.4 mph - N/A   Partly Cloudy